Regional Weather Roundup
Issued by NWS Charleston, WV

Home | Current Version | Previous Version | Graphics & Text | Print | Product List | Glossary On
Versions: 1 2 3 4 5 6 7 8 9 10 11 12 13 14 15 16 17 18 19 20 21 22 23 24 25 26 27 28 29 30 31 32 33 34 35 36 37 38 39 40 41 42 43 44 45 46 47 48 49 50
029
ASUS41 KRLX 170110
RWRRLX
West Virginia Regional Weather Roundup
National Weather Service Charleston WV
900 PM EDT MON OCT 16 2017

Note: "fair" indicates few or no clouds below 12,000 feet with no
significant weather and/or obstructions to visibility.

WVZ003-170200-
Northern Panhandle of West Virginia

CITY           SKY/WX    TMP DP  RH WIND       PRES   REMARKS
WHEELING       CLEAR     48  34  58 NW6       30.28R
$$

WVZ009-170200-
Northwest West Virginia

CITY           SKY/WX    TMP DP  RH WIND       PRES   REMARKS
PARKERSBURG    PTCLDY    47  41  80 CALM      30.31R
$$

WVZ006-170200-
Western West Virginia

CITY           SKY/WX    TMP DP  RH WIND       PRES   REMARKS
HUNTINGTON     CLEAR     50  41  71 CALM      30.29R
$$

WVZ015-170200-
West Central West Virginia

CITY           SKY/WX    TMP DP  RH WIND       PRES   REMARKS
CHARLESTON     CLEAR     50  39  66 CALM      30.29R
$$

WVZ022-031-170200-
North Central West Virginia

CITY           SKY/WX    TMP DP  RH WIND       PRES   REMARKS
CLARKSBURG     CLEAR     47  39  74 CALM      30.27R
MORGANTOWN     CLEAR     48  38  68 CALM      30.27R
$$

WVZ025-035-042-045-170200-
Southern West Virginia

CITY           SKY/WX    TMP DP  RH WIND       PRES   REMARKS
BECKLEY        CLEAR     45  36  70 CALM      30.27R
LOGAN            N/A     50  37  62 CALM      30.28R
BLUEFIELD      CLEAR     45  34  65 CALM      30.28R
LEWISBURG      CLEAR     46  37  68 CALM      30.27R
$$

WVZ047-170200-
Northern Mountains of West Virginia

CITY           SKY/WX    TMP DP  RH WIND       PRES   REMARKS
ELKINS         MOCLDY    42  39  89 CALM      30.28R
$$

WVZ052-170200-
Eastern Panhandle of West Virginia

CITY           SKY/WX    TMP DP  RH WIND       PRES   REMARKS
MARTINSBURG    CLEAR     52  36  54 N6        30.23R
PETERSBURG     PTCLDY    44  40  86 W3        30.26R
$$




USA.gov is the U.S. government's official web portal to all federal, state and local government web resources and services.